Location: Caltech
(34.1382°N, 118.1253°W)
Time: 23:30:11
(UTC-07:00)

Cosmos 1833 - Visible Passes

Search period start: 30 June 2015 00:00
Search period end: 10 July 2015 00:00
Orbit: 838 x 861 km, 70.9° (Epoch: 29 June)

Date Brightness Start Highest point End Pass type
(mag) Time Alt. Az. Time Alt. Az. Time Alt. Az.
30 Jun 4.8 00:30:24 53° NNW 00:30:24 53° NNW 00:35:15 10° NNE visible
30 Jun 6.3 22:35:37 12° ENE 22:35:37 12° ENE 22:36:29 10° ENE visible
01 Jul 4.7 00:17:33 55° NW 00:17:33 55° NW 00:22:33 10° NNE visible
01 Jul 6.2 22:22:42 13° ENE 22:22:42 13° ENE 22:23:45 10° ENE visible
02 Jul 4.7 00:04:39 57° NW 00:04:39 57° NW 00:09:51 10° NNE visible
02 Jul 6.1 22:09:43 13° ENE 22:09:43 13° ENE 22:11:01 10° ENE visible
02 Jul 4.6 23:51:39 59° WNW 23:51:39 59° WNW 23:57:10 10° NNE visible
03 Jul 6.1 21:56:39 14° E 21:56:39 14° E 21:58:17 10° ENE visible
03 Jul 4.5 23:38:34 59° W 23:38:49 60° WNW 23:44:28 10° NNE visible
04 Jul 6.0 21:43:28 14° E 21:43:28 14° E 21:45:33 10° ENE visible
04 Jul 4.5 23:25:23 56° W 23:26:07 61° WNW 23:31:46 10° NNE visible
05 Jul 5.9 21:30:10 15° E 21:30:10 15° E 21:32:49 10° ENE visible
05 Jul 4.6 23:12:04 48° WSW 23:13:25 61° WNW 23:19:04 10° NNE visible
06 Jul 5.8 21:16:39 14° ESE 21:16:58 14° E 21:20:05 10° ENE visible
06 Jul 4.6 22:58:33 37° SW 23:00:42 62° WNW 23:06:23 10° NNE visible
07 Jul 5.8 21:02:55 13° ESE 21:04:16 14° E 21:07:20 10° ENE visible
07 Jul 4.6 22:44:47 26° SW 22:48:00 62° WNW 22:53:41 10° NNE visible
08 Jul 5.8 20:48:53 10° SE 20:51:34 14° E 20:54:36 10° ENE visible
08 Jul 4.6 22:30:37 15° SSW 22:35:18 63° WNW 22:40:59 10° NNE visible
09 Jul 5.8 20:36:14 10° SE 20:38:52 14° E 20:41:51 10° ENE visible
09 Jul 4.6 22:16:58 10° SSW 22:22:35 64° WNW 22:28:17 10° NNE visible
